Tracking 20036 objects as of 21-Nov-2019
Live streaming from Space Station
objects crossing your sky now

FENGYUN 1C DEB

Track FENGYUN 1C DEB now!
10-day predictions


NORAD ID: 37069
Int'l Code: 1999-025EFD
Perigee: 819.8 km
Apogee: 1,504.5 km
Inclination: 95.8 °
Period: 108.4 minutes
Semi major axis: 7533 km
RCS: 0.0144 m2 (small)
Launch date: May 10, 1999
Source: People's Republic of China (PRC)
Launch site: Taiyaun Space Center, China (TSC)

Note: This is SATELLITE DEBRIS
aabbcc
Your satellite tracking list
Your tracking list is empty




NASA's NSSDC Master Catalog

Two Line Element Set (TLE):
1 37069U 99025EFD 19321.70107975 +.00000784 +00000-0 +10055-2 0  9994
2 37069 095.8477 129.4525 0454480 039.1101 324.1975 13.27818034582132
Source of the keplerian elements: AFSPC